Location: Cère
(43.9909°N, 0.5309°W)
Time: 23:27:52
(UTC+00:00)

Daily predictions for brighter satellites

Satellite Brightness Start Highest point End
(mag) Time Altitude Azimuth Time Altitude Azimuth Time Altitude Azimuth
Cosmos 1503 Rocket 4.0 16:48:05 10° SSW 16:53:19 82° ESE 16:58:32 10° NNE
Lacrosse 5 rocket 3.4 16:54:13 10° NNW 16:55:38 12° N 16:57:03 10° NNE
EXPRESS MD2 3.9 16:54:08 10° S 16:56:01 22° SE 16:58:24 10° E
Cosmos 1484 Rocket 2.5 16:55:00 10° SSE 16:58:29 89° ENE 17:02:00 10° NNW
Thor Agena Rocket 3.6 16:54:38 10° SSE 16:59:43 58° ENE 17:04:46 10° N
CZ-4C R/B 3.1 16:53:05 10° NW 17:00:15 83° NE 17:09:04 10° SE
Cosmos 1544 Rocket 4.2 16:56:13 10° SSW 17:00:33 59° W 17:04:57 10° N
UNK 4.0 16:56:10 10° NNE 17:00:37 48° E 17:04:59 10° S
Cosmos 1743 2.5 16:59:28 10° NNW 17:02:43 74° W 17:05:55 10° S
NOSS 2-3 (D) 3.4 16:59:27 10° SSW 17:03:04 51° ESE 17:06:43 10° NE
NOSS 2-3 (E) 3.3 17:00:05 10° SSW 17:03:43 57° ESE 17:07:23 10° NE
Cosmos 1354 Rocket 4.0 16:59:07 10° S 17:04:20 72° ESE 17:09:35 10° NNE
IGS 5A 3.3 17:01:59 10° SSE 17:05:56 86° ENE 17:09:56 10° NNW
Cosmos 1777 Rocket 4.4 17:01:22 10° SSW 17:06:34 66° WNW 17:11:48 10° NNE
USA 238 DEB 3.9 17:02:31 10° S 17:08:12 46° ESE 17:14:24 10° NE
USA 238 3.9 17:02:38 10° S 17:08:19 45° ESE 17:14:30 10° NE
MOS 1 Rocket 4.1 17:04:55 10° SE 17:09:24 35° ENE 17:14:07 10° N
Cosmos 2151 3.0 17:06:41 10° N 17:10:51 86° W 17:15:01 10° S
Gbstr 26 Del rocket 3.0 17:08:47 10° WSW 17:12:59 62° NNW 17:16:29 12° NE
Cosmos 1726 Rocket 4.0 17:09:17 10° SSE 17:13:41 45° E 17:18:03 10° NNE
Cosmos 1900 4.5 17:08:49 10° NW 17:13:51 84° WSW 17:18:47 10° SSE
USA 215 4.4 17:12:27 10° NE 17:17:56 30° N 17:23:24 10° WNW
SMAP 3.0 17:13:36 10° SSE 17:18:13 70° ENE 17:22:52 10° N
IRIDIUM 104 4.3 17:13:40 10° N 17:18:56 86° E 17:24:09 10° S
Meteor 1-20 Rocket 4.3 17:15:13 10° NNW 17:20:42 82° W 17:26:10 10° S
Cosmos 2084 Rocket 4.3 17:16:57 10° NW 17:21:05 54° WSW 17:25:10 10° SSE
Cosmos 1805 4.5 17:19:38 10° NNE 17:21:43 15° ENE 17:23:47 10° ESE
Landsat 7 3.8 17:17:47 10° SSE 17:22:21 60° ENE 17:26:57 10° N
Cosmos 2297 Rocket 3.4 17:17:23 10° NW 17:22:49 48° WSW 17:28:12 10° S
Cosmos 1602 Rocket 4.2 17:19:40 10° NNW 17:23:59 60° W 17:28:14 10° S
GEOS 3 Rocket 3.7 17:19:31 10° NE 17:24:56 79° SE 17:30:18 10° SSW
YAOGAN 1 3.9 17:22:27 10° ESE 17:25:22 18° ENE 17:28:18 10° NNE
IRIDIUM 114 4.5 17:22:49 10° N 17:28:04 79° W 17:33:16 10° S
NOSS 7 (H) 4.5 17:26:30 10° NW 17:29:27 70° SW 17:32:49 10° SSE
SL-16 R/B 4.0 17:28:14 10° ESE 17:29:26 11° E 17:29:26 11° E
Cosmos 990 Rocket 4.1 17:26:37 10° SSW 17:31:44 78° WNW 17:36:55 10° NNE
Okean 1-7 Rocket 3.8 17:27:26 10° NNW 17:31:49 74° W 17:36:08 10° S
CZ-2D R/B 4.4 17:29:57 10° ESE 17:33:21 25° ENE 17:36:44 10° NNE
COSMOS 2455 4.1 17:31:52 10° SSE 17:36:15 21° ESE 17:38:36 17° ENE
SL-16 R/B 3.5 17:30:47 10° N 17:36:43 48° WNW 17:42:36 10° SW
Okean 1 4.1 17:34:28 10° SE 17:37:24 24° E 17:38:20 21° ENE
SKYMED 2 4.2 17:35:14 12° NNE 17:38:50 34° E 17:42:47 10° SSE
SJ-6F 4.3 17:39:42 10° SSE 17:43:37 59° ENE 17:47:35 10° N
Cosmos 1980 Rocket 2.2 17:38:27 10° SSW 17:44:04 71° ESE 17:49:20 12° NNE
Cosmos 1844 Rocket 4.1 17:41:51 10° N 17:45:35 18° NE 17:45:49 18° NE
Aureole 1 Rocket 3.3 17:41:41 10° S 17:46:04 67° ESE 17:51:41 10° NNE
Cosmos 2219 3.4 17:40:39 10° NNW 17:46:12 47° ENE 17:51:43 10° SE
Meteor 1-26 Rocket 4.4 17:42:20 10° SSE 17:47:25 44° E 17:52:31 10° NNE
Cosmos 1953 Rocket 3.5 17:44:20 10° N 17:48:47 71° E 17:53:13 10° SSE
PSLV R/B 4.4 17:46:09 10° ESE 17:49:59 24° NE 17:52:48 10° NNE
ARIANE 5 R/B 2.7 17:46:15 10° S 17:51:18 77° WSW 17:56:28 10° NNW
IRS-1C 4.3 17:47:40 10° S 17:52:59 77° WSW 17:58:20 10° NNW
Cosmos 2263 Rocket 2.1 17:48:45 10° NNW 17:54:28 78° ENE 18:00:09 10° SSE
BREEZE-M DEB (TANK) 2.6 17:51:55 10° SW 17:56:28 58° SSE 17:57:13 40° E
Cosmos 1825 Rocket 4.3 17:52:20 10° NNW 17:56:34 54° W 18:00:44 10° S
SAR-Lupe-4 4.2 17:54:42 10° S 17:58:12 57° W 18:01:43 10° NNW
Meteor 1-5 Rocket 4.3 17:53:47 10° NNW 17:59:11 78° W 18:04:42 10° S
BREEZE-M DEB (TANK) 4.0 17:55:48 10° WNW 17:59:24 59° NNE 18:06:53 19° E
Cosmos 1680 Rocket 4.3 17:55:14 10° N 17:59:45 28° ENE 18:00:24 28° ENE
COSMO-SKYMED 1 3.0 17:59:08 31° ENE 18:00:09 36° E 18:03:57 10° SSE
Cosmos 2369 3.8 17:56:11 10° S 18:01:45 56° ESE 18:05:20 22° NE
Cosmos 1076 Rocket 3.7 17:59:06 10° NNW 18:03:25 73° W 18:07:42 10° S
Meteor 2-10 4.0 17:58:15 10° N 18:03:41 73° E 18:09:16 10° SSE
Cosmos 1655 Rocket 4.3 18:06:15 10° NNW 18:12:26 71° W 18:18:36 10° S
USA 81 3.9 18:07:36 10° N 18:12:54 85° E 18:18:10 10° S
Cosmos 2227 Rocket 3.5 18:09:11 10° NW 18:14:28 42° WSW 18:19:44 10° S
SPOT 1/Viking Rocket 3.5 18:10:09 10° SSE 18:15:22 86° ENE 18:20:36 10° NNW
Cosmos 2058 Rocket 3.3 18:17:59 10° SSW 18:22:26 72° W 18:26:26 13° N
Cosmos 1697 Rocket 4.4 18:19:06 10° WSW 18:23:55 29° NW 18:28:46 10° N
Cosmos 2333 Rocket 3.6 18:26:51 10° SSE 18:29:34 22° SE 18:29:34 22° SE
Lacrosse 5 rocket 3.7 18:32:15 10° NNW 18:32:26 11° NNW 18:32:26 11° NNW
Meteor 2-11 Rocket 4.3 18:29:41 10° N 18:35:51 68° E 18:41:56 10° SSE
Meteor 1-14 Rocket 4.4 18:34:21 10° N 18:39:09 48° NE 18:39:09 48° NE
Resurs 1-3 3.6 18:38:00 10° S 18:42:16 74° WSW 18:46:36 10° NNW
Cosmos 2322 Rocket 4.1 18:37:57 10° SSE 18:39:03 15° SSE 18:39:03 15° SSE
Cosmos-2242 4.1 18:40:51 10° SSW 18:44:52 42° WNW 18:47:45 18° NNW
USA 59 Rocket 2.5 18:45:01 10° S 18:45:01 10° S 18:45:01 10° S
Spot 4 Rocket 4.4 18:47:02 10° S 18:52:04 63° WSW 18:57:10 10° NNW
Cosmos 1898 Rocket 4.5 18:49:03 10° SW 18:53:57 43° WNW 18:56:44 23° N
Cosmos 1553 Rocket 4.4 18:53:07 10° SSW 18:59:12 63° WNW 19:05:26 10° N
S3M 3.9 18:53:26 10° S 18:59:18 64° ESE 18:59:18 64° ESE
USA 215 4.1 18:59:28 32° NNE 18:59:47 32° NNE 19:05:26 10° NW
IRAS Rocket 4.4 18:54:38 10° S 19:00:05 69° WSW 19:05:34 10° NNW
YAOGAN 1 3.6 18:56:49 10° S 19:00:53 44° W 19:04:59 10° NNW
Cosmos 2082 4.3 18:57:36 10° NNW 19:03:12 57° WSW 19:08:46 10° S
BREEZE-M DEB (TANK) 3.1 18:59:20 10° SW 19:06:16 80° S 19:06:16 80° S
Cosmos 1937 Rocket 4.5 19:04:28 10° SW 19:09:23 43° WNW 19:10:58 34° NNW
Meteor 2-6 Rocket 4.4 19:04:00 10° SSW 19:09:38 70° WNW 19:11:37 42° N
SL-16 R/B 2.5 19:06:58 10° SSW 19:11:20 55° S 19:11:20 55° S
SL-24 R/B - RUBIN 2 4.4 19:10:39 10° SW 19:15:40 55° WNW 19:15:40 55° WNW
Cosmos 1745 Rocket 3.9 19:11:44 10° N 19:17:54 82° W 19:24:02 10° S
COSMOS 2455 3.0 19:15:37 10° SW 19:21:36 67° WNW 19:21:46 67° NW
Cosmos 1980 Rocket 4.3 19:24:23 10° W 19:28:37 21° NW 19:31:06 16° NNW
Cosmos 1844 Rocket 3.9 19:24:34 10° NNW 19:27:31 32° NNW 19:27:31 32° NNW
Cosmos 2333 Rocket 4.4 20:10:04 10° SW 20:11:39 19° SW 20:11:39 19° SW
